Weather Roundup
Issued by NWS

Home | Current Version | Previous Version | Graphics & Text | Print | Product List | Glossary Off
Versions: 1 2 3 4 5 6 7 8 9 10 11 12 13 14 15 16 17 18 19 20 21 22 23 24 25 26 27 28 29 30 31 32 33 34 35 36 37 38 39 40 41 42 43 44 45 46 47 48 49 50

000
NZUS93 KARX 191959
HRRWXR

CURRENT HOURLY OBSERVATIONS ACROSS
MUCH OF THE UPPER MISSISSIPPI VALLEY
NATIONAL WEATHER SERVICE LA CROSSE WI
200 PM CST SUN FEB 19 2017


...SOUTHEAST MINNESOTA...


CITY           SKY/WX    TMP DP  RH WIND       PRES   REMARKS
ROCHESTER      SUNNY     56  44  64 SE15      29.93F
ROCHESTER/MAYO FAIR      56  40  55 SE10G18   29.93F
WINONA         CLOUDY    55  36  47 SE7       29.96F
AUSTIN         CLOUDY    55  45  67 SE9       29.91F
ALBERT LEA     SUNNY     57  46  67 SE15      29.88F
DODGE CENTER   CLOUDY    55  45  67 SE12      29.92S
PRESTON        SUNNY     56  40  56 SE9       29.94F
OWATONNA       SUNNY     59  43  55 SE22      29.88F
FARIBAULT      CLOUDY    61  45  55 SE15G22   29.89F
$$

...ELSEWHERE IN MINNESOTA...


CITY           SKY/WX    TMP DP  RH WIND       PRES   REMARKS
MINNEAPOLIS    PTSUNNY   59  40  49 SE14      29.89F
INTNL FALLS    PTSUNNY   43  30  60 E9        29.90S
DULUTH         CLOUDY    41  31  67 E9        29.94S
RED WING       MOSUNNY   57  37  47 SE9       29.92F
REDWOOD FALLS  MOSUNNY   57  46  66 SE16      29.78F
MANKATO          N/A     59  47  64 SE14      29.85F
WORTHINGTON    MOSUNNY   58  51  78 S15       29.79F
FAIRMONT       CLOUDY    60  51  72 SE16      29.83F
$$

...SOUTHWEST WISCONSIN...


CITY           SKY/WX    TMP DP  RH WIND       PRES   REMARKS
LA CROSSE      CLOUDY    60  36  40 S7        29.97F
PRAIRIE DU CHI CLOUDY    61  39  43 E8        29.97F
BOSCOBEL       SUNNY     65  36  34 S5        29.98F
LONE ROCK      NOT AVBL
PLATTEVILLE    SUNNY     62  40  44 SE8       30.01S
FORT MC COY    MOSUNNY   61  33  35 S7        29.98F
MAUSTON-NEW LI CLOUDY    61  32  33 SE10      29.99F
VIROQUA        FAIR      58  36  44 S12G17    29.98F
WIS DELLS      SUNNY     60  33  36 S7        30.00F
$$

...ELSEWHERE IN WISCONSIN...


CITY           SKY/WX    TMP DP  RH WIND       PRES   REMARKS
MILWAUKEE      MOSUNNY   54  31  41 E8        30.06S
MADISON        PTSUNNY   60  36  40 S10       30.02F
GREEN BAY      SUNNY     56  38  50 S8        30.03S
EAU CLAIRE     NOT AVBL
BLACK RVR FLS  FAIR      63  25  23 S12       29.97F
MEDFORD        SUNNY     48  32  55 S6        29.99F
WAUSAU         SUNNY     56  30  37 S3        29.99S
WIS RAPIDS     CLOUDY    61  33  35 SW6       30.01F
MARSHFIELD     SUNNY     53  32  44 SE6       29.99S
RICE LAKE      CLOUDY    54  34  47 S10       29.98S
$$

...NORTHEAST IOWA...


CITY           SKY/WX    TMP DP  RH WIND       PRES   REMARKS
WATERLOO       MOSUNNY   65  43  44 SE12      29.93F
DUBUQUE        SUNNY     63  36  36 SE10      29.99F
DECORAH        SUNNY     59  45  58 SE9       29.95S
MASON CITY     CLOUDY    58  49  72 SE14      29.90F
CHARLES CITY   SUNNY     59  46  63 SE14      29.93F
OELWEIN        SUNNY     61  45  55 SE13      29.95F
$$

...ELSEWHERE IN IOWA...


CITY           SKY/WX    TMP DP  RH WIND       PRES   REMARKS
DES MOINES     CLOUDY    72  46  39 S21       29.89F
IOWA CITY      CLOUDY    70  41  34 SE10      29.97F
FORT DODGE     CLOUDY    66  48  52 S14G21    29.86S
MARSHALLTOWN   MOSUNNY   67  49  52 S15G24    29.91F
CEDAR RAPIDS   SUNNY     68  42  38 SE12      29.94F
$$

...NORTHERN ILLINOIS...


CITY           SKY/WX    TMP DP  RH WIND       PRES   REMARKS
CHICAGO-OHARE  MOSUNNY   68  31  25 N3        30.03F
CHICAGO-MIDWAY PTSUNNY   65  31  28 E7        30.04F
MOLINE         SUNNY     73  36  25 SE7       29.97F
ROCKFORD       PTSUNNY   66  39  37 S5        30.04F
PEORIA         SUNNY     66  44  45 S9        30.03F
$$

NOTE: "FAIR" INDICATES FEW OR NO CLOUDS BELOW 12,000 FEET WITH NO
SIGNIFICANT WEATHER AND/OR OBSTRUCTIONS TO VISIBILITY. WIND
SPEEDS ARE IN MILES-PER-HOUR.




USA.gov is the U.S. government's official web portal to all federal, state and local government web resources and services.